STARLINK-37410, 68823

Orbit data source: Space-Track

STARLINK-37410, 68823 is a payload satellite owned by SpaceX/Seattle (US) in SSO that was launched on Thu, 23 Apr 2026 UTC via an FALCON 9 launch vehicle from the Air Force Western Test Range (AFWTR). Payload-class satellites include a variety of spacecraft equipped with specific instruments for various scientific and technological missions. These include communications satellites like Starlink; space stations such as the ISS; scientific satellites like the Hubble; Earth observation satellites from companies like Planet Labs, Umbra, and HawkEye 360; GPS; miniature CubeSats for education and research; and military/defense satellites.

Not visible in the next 10 days
Identifier
68823, 2026-089X
Orbit
SSO
Country
Flag of USUS
Related business
Manufacturer
SpaceX/Seattle
Mission
Operational spacecraft
Bus & Motor
STARLINK V2MO, Unknown motor
Mass
575 kg wet, ~530 kg dry
Launch date (UTC)
2026-04-23 (1 week ago)
Launch vehicle
FALCON 9
Launch site
Air Force Western Test Range (AFWTR)
Object type
Payload
Rocket body
Debris
Shape & HBR
Unknown
Radar Cross Section
RCS unknown

Expand to show TLE details & history
Last TLE update: 7 hours ago

TLE from 7 hours ago
0 STARLINK-37410
1 68823U 26089X   26121.25002315 -.01962891  00000-0 -80541-2 0  9990
2 68823  97.2834 326.7115 0001605  82.6101   8.5856 15.89237674  2452
Epoch: 2026-05-01T06:00Z
TLE epoch observation values (Epoch: 2026-05-01T06:00:02.000Z)
Latitude
82.66014°
Longitude
-81.86336°
Altitude
316.922 km
Speed
7.726 km/s
True Right ascension
15h 09m 19s
True Declination
82° 36' 49"
Sunlit
Object was in daylight at epoch
Visualization orbit readout
Latitude
Unknown
Longitude
Unknown
Altitude
Unknown
Speed
Unknown
Apparent Right ascension
Unknown
Apparent Declination
Unknown
Sunlit
N/A
Visualization observer readout
Local Sidereal Time
20:14:56
Azimuth
Unknown
Elevation
Unknown
Doppler factor
Unknown
Orbital elements
Apogee altitude
302.36 km
Perigee altitude
300.216 km
Semi-major axis
6,679.425 km
Eccentricity
0.00016
Inclination
97.2834°
RAAN
326.7115°
Arg. of periapsis
82.6101°
True anomaly
8.58835°
Mean anomaly
8.5856°
Eccentric anomaly
8.58697°
Mean motion
3.97589 °/min
Orbital period
90.55 mins
BSTAR
-0.0080541
Loading maneuver chart data...
Computing Atmospheric mass density...
Loading historical data...
Loading historical data...
Loading historical data...
Loading historical data...
Loading historical data...
Loading historical data...
Loading historical data...

Documentation

Showing up to 5 results
|